Temperature
3 2 2 1 1 -0 -1 -2 -3 -4 -3 -3 -3 -2 -1 -1 -1 -1 -2 -2 -2 -3 -3 -3 -4 -4 -4 -4 -4 -4 -4 -4 -4 -4 -4 -4 -3 -3
2 2 1 1 1 -0 -1 -2 -3 -4 -4 -4 -4 -3 -3 -3 -2 -3 -2 -2 -3 -3 -3 -4 -4 -4 -5 -5 -5 -5 -5 -4 -4 -4 -4 -4 -4 -4
2 2 1 1 0 -1 -1 -2 -3 -4 -5 -5 -5 -4 -4 -4 -4 -4 -4 -4 -3 -3 -4 -4 -4 -4 -5 -5 -5 -5 -5 -5 -5 -4 -4 -4 -4 -4
2 1 1 1 0 -1 -1 -2 -3 -4 -5 -5 -5 -5 -5 -5 -5 -4 -4 -4 -4 -4 -4 -4 -4 -5 -5 -5 -5 -5 -5 -5 -5 -5 -5 -5 -5 -5
1 1 0 0 -0 -1 -1 -2 -3 -4 -5 -6 -6 -6 -6 -6 -6 -5 -5 -5 -4 -4 -4 -4 -4 -5 -5 -6 -6 -6 -6 -6 -6 -6 -6 -6 -5 -5
0 -0 -0 -1 -1 -1 -2 -2 -3 -4 -5 -6 -7 -7 -7 -6 -6 -6 -5 -5 -5 -4 -5 -5 -5 -5 -6 -6 -6 -6 -6 -6 -6 -6 -6 -6 -6 -6
-0 -1 -1 -1 -2 -2 -3 -4 -4 -5 -6 -7 -7 -8 -7 -7 -7 -6 -6 -6 -5 -5 -5 -5 -5 -5 -5 -6 -6 -6 -7 -7 -7 -7 -7 -7 -7 -7
-2 -2 -2 -2 -3 -4 -5 -5 -6 -6 -6 -7 -7 -8 -7 -7 -7 -7 -7 -7 -7 -5 -6 -6 -6 -6 -6 -6 -6 -7 -7 -8 -8 -8 -7 -7 -7 -7
-2 -2 -3 -3 -3 -4 -4 -5 -5 -5 -6 -6 -7 -7 -7 -6 -7 -7 -7 -7 -7 -6 -7 -7 -7 -7 -7 -7 -7 -8 -8 -8 -8 -8 -8 -8 -8 -8
-3 -3 -3 -3 -4 -4 -5 -5 -5 -5 -6 -6 -6 -6 -6 -6 -6 -7 -7 -7 -7 -7 -7 -8 -7 -7 -7 -7 -8 -8 -8 -9 -9 -9 -9 -8 -8 -8
-3 -3 -4 -4 -4 -5 -6 -6 -6 -6 -6 -7 -6 -6 -6 -6 -6 -7 -7 -7 -8 -7 -7 -8 -8 -8 -8 -8 -8 -8 -9 -9 -9 -9 -9 -9 -9 -9
-3 -4 -5 -5 -5 -6 -6 -6 -7 -6 -7 -7 -7 -7 -6 -6 -6 -6 -6 -7 -7 -7 -7 -8 -8 -9 -9 -9 -9 -9 -9 -9 -10 -10 -10 -10 -10 -9
-4 -4 -5 -5 -6 -6 -6 -6 -6 -7 -7 -7 -7 -7 -7 -6 -6 -6 -7 -7 -7 -8 -8 -8 -9 -9 -10 -10 -10 -10 -10 -10 -10 -10 -10 -10 -10 -10
-5 -5 -5 -5 -6 -6 -6 -6 -6 -6 -7 -7 -7 -7 -6 -6 -6 -6 -7 -7 -7 -8 -8 -9 -9 -10 -11 -11 -11 -11 -11 -11 -11 -11 -11 -10 -10 -10
-5 -5 -6 -6 -6 -6 -6 -6 -6 -6 -6 -6 -7 -6 -6 -6 -6 -7 -7 -7 -8 -8 -8 -9 -9 -10 -11 -11 -11 -11 -11 -11 -11 -11 -11 -11 -11 -11
-5 -5 -6 -6 -6 -6 -6 -6 -6 -6 -6 -6 -6 -6 -6 -6 -7 -7 -7 -8 -8 -8 -8 -8 -9 -10 -11 -11 -12 -12 -12 -12 -11 -11 -11 -11 -11 -11
-5 -6 -6 -6 -6 -6 -6 -6 -6 -6 -6 -6 -6 -6 -7 -7 -7 -7 -8 -8 -9 -9 -8 -8 -9 -10 -11 -11 -12 -12 -12 -11 -11 -11 -11 -11 -11 -10
-5 -5 -6 -6 -6 -6 -6 -6 -6 -6 -6 -6 -6 -7 -7 -7 -7 -8 -8 -9 -9 -9 -9 -9 -10 -11 -11 -11 -11 -11 -11 -11 -11 -11 -11 -11 -11 -10
-5 -5 -6 -6 -6 -6 -6 -6 -6 -6 -6 -6 -7 -7 -7 -8 -8 -8 -9 -9 -10 -10 -10 -10 -11 -12 -12 -12 -12 -11 -12 -12 -12 -11 -11 -11 -11 -10
-6 -6 -6 -6 -6 -6 -6 -6 -6 -6 -6 -7 -7 -7 -8 -8 -9 -9 -9 -10 -10 -10 -10 -10 -11 -11 -12 -12 -12 -12 -11 -12 -12 -12 -11 -11 -10 -9
-6 -6 -6 -6 -6 -6 -6 -6 -6 -6 -7 -7 -7 -8 -8 -9 -9 -9 -10 -10 -10 -11 -11 -11 -11 -11 -12 -12 -12 -12 -11 -11 -11 -11 -11 -11 -10 -9
-6 -6 -6 -6 -6 -6 -6 -7 -7 -7 -7 -7 -8 -8 -8 -9 -9 -10 -10 -10 -10 -11 -11 -11 -11 -11 -12 -13 -13 -12 -11 -10 -10 -10 -10 -9 -10 -9
-6 -6 -6 -6 -7 -7 -7 -7 -7 -7 -7 -7 -8 -8 -9 -9 -9 -10 -10 -10 -11 -11 -11 -11 -11 -12 -12 -12 -12 -12 -12 -11 -10 -9 -8 -7 -7 -7
Wind_Speed
18 18 18 15 13 12 11 11 12 14 14 9 8 8 13 17 22 20 19 24 26 26 27 27 28 29 29 30 30 30 30 31 31 31 31 32 32 33
15 16 18 14 13 12 13 11 13 16 17 6 9 7 8 12 19 19 20 24 26 27 27 28 29 29 30 30 31 31 32 32 33 33 33 34 34 34
16 17 20 16 14 12 12 13 14 14 20 10 7 8 9 10 10 13 15 16 18 26 28 29 30 30 30 31 31 32 32 33 33 34 34 35 35 35
18 18 19 15 17 15 14 15 15 15 17 17 8 9 11 10 9 10 11 16 16 24 28 29 30 30 31 31 31 32 32 33 33 34 35 36 36 37
17 18 18 17 18 16 16 16 14 15 14 14 11 8 9 8 9 10 12 9 15 21 25 27 28 30 30 30 31 31 32 33 34 34 35 36 37 38
16 17 17 17 19 18 16 16 14 14 13 13 12 9 10 8 7 10 11 10 11 13 18 21 25 28 29 30 31 31 32 33 34 35 36 37 37 38
15 15 16 20 24 19 15 12 12 13 12 13 14 12 12 9 10 9 12 9 9 10 11 12 13 13 16 26 29 31 32 33 34 36 37 37 38 38
15 14 15 20 25 30 31 27 22 17 15 15 14 14 12 12 11 11 10 9 8 7 9 11 10 12 11 12 25 30 32 33 34 35 36 37 38 38
13 12 12 13 20 14 21 29 27 31 28 18 17 16 14 13 12 13 12 12 12 8 7 12 10 13 11 17 28 30 32 34 35 36 37 37 38 38
11 12 13 12 13 14 12 13 14 15 18 17 16 15 14 11 12 13 12 13 11 10 9 13 11 12 12 9 25 31 33 34 35 36 36 37 37 37
10 10 12 11 19 23 15 13 13 13 22 27 24 20 24 25 19 12 12 11 12 10 8 8 9 11 12 12 16 28 32 33 34 34 35 35 35 34
7 9 16 16 19 22 14 13 14 12 11 12 16 18 16 17 23 15 10 10 9 7 6 6 6 6 9 9 10 10 15 24 31 33 34 34 34 23
7 7 9 18 21 22 20 13 17 13 9 11 10 10 10 9 9 9 8 8 10 9 5 5 6 8 12 13 11 10 11 13 15 20 26 32 33 28
8 6 9 17 20 21 17 18 22 19 10 10 10 10 10 9 9 8 9 9 10 12 8 7 7 10 14 18 16 9 8 10 13 15 14 23 27 32
7 12 14 17 18 15 19 21 18 12 10 10 10 10 9 7 6 5 6 7 8 9 10 10 11 11 13 16 18 17 16 14 13 14 14 15 16 16
8 11 15 16 13 13 13 11 8 7 8 8 8 6 5 5 6 5 5 5 6 8 9 11 12 13 14 16 17 18 16 13 11 12 14 16 16 16
7 5 4 4 5 6 7 7 5 5 6 5 6 5 5 5 5 5 5 5 6 8 9 7 8 11 14 15 17 18 17 17 15 14 15 17 16 16
10 6 6 6 7 7 7 6 6 6 5 5 5 5 5 5 5 4 4 5 8 9 10 9 8 9 11 12 18 19 17 16 15 15 15 16 18 15
9 6 6 6 6 6 6 6 6 6 5 5 5 5 5 5 5 5 5 6 8 10 10 8 8 10 15 17 9 14 15 15 15 15 14 15 18 17
5 5 5 6 6 6 6 6 6 5 5 5 5 5 5 5 5 6 6 8 9 10 11 8 8 10 13 17 16 13 18 17 16 16 15 15 16 21
5 5 5 5 5 6 6 6 6 5 5 5 5 5 5 5 6 6 7 12 12 10 12 11 10 16 13 11 14 13 11 17 20 17 16 15 16 15
5 5 5 5 5 5 5 5 5 5 5 5 5 5 5 5 6 8 8 9 9 10 12 11 10 10 9 13 16 17 17 15 17 24 26 23 14 9
5 5 5 5 5 5 5 5 6 5 5 5 5 5 5 5 6 7 8 9 10 11 11 12 10 9 10 12 14 15 18 18 14 13 14 20 25 29
Wind_Direction
234 232 234 235 229 227 223 218 234 258 259 216 221 220 223 226 234 238 236 245 253 258 262 265 267 269 270 272 273 274 275 276 277 277 277 276 276 277
233 232 234 235 231 226 225 223 224 241 259 218 215 205 211 224 232 233 233 245 252 258 262 265 267 268 269 270 271 271 272 273 274 275 275 276 276 276
233 233 235 230 231 228 225 225 228 229 250 247 206 208 208 222 238 235 234 242 251 258 263 266 266 267 268 268 269 270 271 272 273 275 276 276 276 276
236 234 236 231 230 228 227 228 229 227 238 250 222 212 219 224 230 235 243 247 245 255 260 263 265 265 266 267 268 269 271 272 273 274 275 276 276 276
237 235 235 229 232 229 227 228 228 229 230 241 238 221 228 229 231 241 244 244 248 254 260 263 264 265 266 267 268 270 271 272 273 274 275 275 275 275
241 237 234 229 231 228 229 227 225 226 225 232 238 232 233 225 225 240 250 242 246 250 256 259 262 264 265 267 269 271 273 274 275 275 275 274 274 273
246 240 237 235 235 233 232 225 219 222 223 229 236 236 233 226 227 229 243 248 248 245 251 254 257 258 260 264 268 272 273 274 274 274 274 273 273 272
247 243 240 246 248 247 244 236 222 219 221 225 231 232 230 227 228 231 236 243 256 229 236 250 244 251 251 248 261 267 270 272 273 273 274 273 273 272
242 242 242 239 243 238 247 249 244 233 223 219 228 228 227 224 224 230 232 235 245 239 236 262 255 258 256 259 266 270 272 274 275 275 275 274 273 271
241 236 235 234 231 231 229 234 238 242 239 232 225 225 227 224 219 227 235 244 251 250 237 260 260 261 263 254 268 271 273 274 275 275 275 274 272 271
246 236 236 233 240 243 235 229 233 235 243 242 241 234 230 231 226 226 232 240 253 250 223 240 261 269 270 267 265 270 272 274 275 275 275 274 273 271
253 241 249 248 244 247 240 229 230 228 223 235 244 251 249 245 243 233 228 242 258 260 223 222 252 271 280 259 251 256 263 269 272 273 274 273 273 272
260 246 239 256 256 249 240 230 233 225 211 220 227 234 238 241 242 236 224 230 248 256 225 213 255 265 273 281 274 261 258 261 266 268 270 270 269 268
262 250 243 254 255 254 248 237 234 233 218 215 221 226 228 229 228 224 223 226 233 246 247 233 254 267 276 281 285 275 254 257 262 266 263 265 267 266
266 266 262 260 258 255 252 245 238 229 217 213 215 221 221 218 210 213 224 232 242 246 249 241 247 259 264 274 281 284 285 278 265 262 263 262 260 260
283 280 279 273 264 246 244 251 241 225 214 213 209 208 198 199 209 210 225 235 256 266 247 240 243 249 263 270 275 280 279 276 269 265 267 267 262 256
256 243 244 251 248 236 226 226 221 213 213 195 197 200 205 213 219 209 220 233 252 273 280 263 246 247 254 266 274 274 275 275 273 273 273 272 267 258
273 235 226 232 236 234 221 214 208 205 201 196 198 203 210 217 228 225 225 239 262 271 275 276 277 282 277 262 250 265 269 272 274 272 270 272 273 266
278 246 223 221 224 218 209 201 198 196 189 194 202 205 211 219 229 239 244 254 265 270 272 271 269 280 289 291 260 247 265 275 277 275 271 269 271 273
262 248 226 214 211 207 201 196 193 190 191 200 206 210 211 219 234 245 252 258 269 275 278 269 260 265 274 285 289 278 268 268 273 275 275 273 271 272
253 239 221 209 205 203 198 194 192 195 196 197 208 212 213 218 238 249 257 270 277 279 280 280 271 281 283 284 284 283 272 268 269 272 275 276 277 276
251 233 216 206 201 197 192 189 191 198 199 205 213 216 216 221 240 252 260 268 273 275 279 282 281 283 278 281 284 289 294 290 280 276 270 262 262 265
243 227 208 199 194 188 186 189 195 204 205 208 214 219 221 234 245 255 263 270 275 280 284 290 290 282 279 280 285 289 292 297 298 294 283 270 263 259
Height
1432 1432 1431 1431 1432 1432 1433 1435 1437 1432 1426 1429 1433 1436 1440 1443 1444 1444 1444 1445 1445 1445 1444 1444 1444 1444 1443 1443 1443 1442 1442 1441 1441 1440 1439 1438 1438 1437
1420 1420 1418 1419 1420 1421 1422 1422 1423 1422 1417 1416 1421 1425 1429 1431 1433 1433 1434 1435 1435 1435 1435 1434 1434 1434 1433 1433 1433 1432 1432 1431 1431 1430 1429 1429 1428 1427
1408 1407 1405 1408 1408 1408 1409 1410 1410 1411 1406 1404 1410 1414 1417 1420 1422 1423 1424 1424 1424 1424 1424 1424 1423 1423 1423 1422 1422 1422 1422 1421 1420 1419 1418 1418 1417 1416
1396 1395 1394 1396 1395 1396 1397 1397 1397 1398 1397 1395 1398 1402 1405 1408 1410 1412 1413 1413 1413 1413 1413 1413 1412 1412 1412 1412 1412 1411 1411 1410 1409 1408 1407 1406 1405 1404
1383 1382 1382 1383 1382 1383 1384 1384 1385 1386 1386 1386 1386 1391 1393 1397 1398 1399 1400 1401 1401 1402 1402 1402 1401 1401 1401 1401 1401 1400 1399 1398 1397 1396 1394 1393 1392 1391
1371 1370 1369 1370 1369 1371 1371 1371 1373 1374 1375 1376 1377 1379 1382 1385 1387 1387 1388 1390 1390 1391 1391 1391 1390 1390 1390 1390 1390 1389 1387 1386 1384 1382 1381 1379 1378 1376
1358 1357 1357 1357 1357 1358 1358 1358 1361 1362 1364 1365 1367 1369 1371 1374 1374 1377 1378 1379 1379 1380 1379 1379 1379 1378 1377 1377 1376 1375 1373 1372 1370 1368 1366 1365 1363 1362
1346 1345 1346 1346 1346 1348 1348 1349 1349 1350 1352 1354 1355 1358 1359 1363 1366 1367 1369 1369 1369 1370 1369 1367 1368 1365 1365 1364 1363 1361 1360 1358 1356 1354 1352 1350 1348 1347
1336 1335 1334 1334 1335 1335 1337 1339 1341 1341 1341 1343 1344 1346 1350 1353 1357 1358 1359 1359 1359 1360 1360 1356 1356 1354 1353 1352 1351 1349 1347 1345 1343 1340 1337 1335 1333 1331
1327 1325 1324 1324 1325 1325 1325 1326 1328 1330 1334 1335 1335 1337 1342 1345 1347 1349 1351 1351 1350 1350 1351 1347 1345 1343 1341 1339 1338 1336 1334 1331 1328 1325 1322 1320 1318 1316
1318 1317 1315 1314 1315 1316 1316 1315 1316 1318 1322 1326 1328 1331 1333 1336 1339 1341 1341 1342 1340 1340 1340 1338 1334 1333 1329 1325 1323 1322 1319 1317 1314 1311 1308 1305 1303 1301
1309 1308 1307 1306 1306 1307 1307 1307 1307 1309 1312 1316 1319 1322 1325 1328 1331 1332 1333 1333 1332 1330 1330 1329 1326 1323 1315 1309 1309 1306 1303 1301 1299 1296 1293 1290 1288 1287
1301 1300 1299 1299 1299 1299 1299 1299 1300 1303 1305 1308 1310 1313 1316 1318 1321 1323 1325 1325 1324 1321 1321 1321 1317 1314 1309 1299 1295 1294 1290 1286 1283 1279 1276 1274 1272 1271
1295 1293 1292 1291 1291 1292 1292 1293 1295 1298 1299 1301 1303 1305 1308 1310 1313 1315 1316 1316 1315 1313 1312 1312 1308 1304 1299 1291 1283 1279 1277 1274 1270 1265 1261 1258 1256 1254
1289 1287 1286 1285 1284 1285 1286 1287 1290 1292 1293 1295 1296 1298 1301 1304 1306 1307 1307 1307 1305 1304 1303 1301 1299 1295 1291 1283 1275 1269 1264 1259 1257 1253 1249 1245 1241 1238
1283 1281 1280 1279 1278 1279 1280 1281 1283 1285 1287 1289 1291 1293 1296 1297 1298 1299 1299 1298 1296 1293 1293 1291 1289 1285 1279 1274 1267 1258 1254 1248 1243 1241 1237 1231 1228 1224
1277 1274 1274 1273 1272 1273 1274 1276 1278 1280 1282 1284 1286 1288 1290 1291 1291 1292 1291 1290 1287 1283 1281 1280 1278 1274 1269 1264 1256 1248 1242 1237 1233 1229 1225 1219 1213 1211
1272 1269 1268 1268 1268 1268 1269 1271 1273 1275 1278 1280 1281 1283 1284 1284 1284 1284 1284 1282 1279 1276 1273 1270 1267 1262 1256 1250 1247 1239 1232 1227 1222 1219 1215 1208 1200 1197
1265 1263 1263 1263 1263 1264 1265 1267 1269 1271 1273 1275 1276 1277 1278 1278 1278 1277 1276 1274 1272 1268 1265 1262 1259 1255 1248 1238 1232 1232 1225 1217 1213 1207 1203 1198 1190 1184
1259 1258 1258 1258 1259 1260 1261 1263 1265 1267 1269 1270 1271 1272 1272 1272 1271 1270 1269 1267 1264 1261 1257 1254 1251 1247 1241 1232 1222 1216 1215 1209 1203 1197 1191 1186 1180 1175
1254 1253 1253 1253 1254 1256 1257 1259 1261 1263 1264 1265 1266 1266 1266 1266 1265 1264 1262 1260 1258 1254 1249 1245 1242 1239 1232 1225 1215 1204 1201 1199 1194 1188 1182 1177 1171 1165
1249 1249 1249 1249 1251 1252 1254 1255 1257 1258 1260 1260 1261 1261 1261 1260 1259 1258 1256 1253 1250 1246 1241 1236 1232 1228 1223 1217 1208 1198 1190 1185 1181 1177 1172 1168 1164 1157
1245 1245 1245 1246 1247 1249 1250 1252 1253 1254 1255 1256 1256 1256 1255 1254 1253 1252 1249 1247 1243 1239 1234 1228 1223 1219 1214 1208 1201 1192 1184 1177 1171 1165 1160 1156 1153 1149